| time (UTC) | temp F | wind direction | speed MPH | gust MPH | rain 1hr in | rain 24hr in | rain mn in | humidity % | barometer mb |
| 20260506230107 | 46 | 311 | 10.0 | 15.0 | 0.00 | 0.00 | 0.00 | 73 | 1023.6 |
| 20260506225519 | 46 | 301 | 11.0 | 16.0 | 0.00 | 0.00 | 0.00 | 73 | 1023.6 |
| 20260506225025 | 46 | 315 | 9.0 | 15.0 | 0.00 | 0.00 | 0.00 | 72 | 1023.6 |
| 20260506224600 | 46 | 300 | 9.0 | 15.0 | 0.00 | 0.00 | 0.00 | 72 | 1023.5 |
| 20260506224015 | 46 | 299 | 9.0 | 15.0 | 0.00 | 0.00 | 0.00 | 72 | 1023.5 |
| 20260506223519 | 46 | 293 | 10.0 | 17.0 | 0.00 | 0.00 | 0.00 | 71 | 1023.5 |
| 20260506223054 | 46 | 301 | 11.0 | 18.0 | 0.00 | 0.00 | 0.00 | 70 | 1023.5 |
| 20260506222519 | 47 | 300 | 8.0 | 18.0 | 0.00 | 0.00 | 0.00 | 70 | 1023.5 |
| 20260506222019 | 47 | 306 | 8.0 | 15.0 | 0.00 | 0.00 | 0.00 | 68 | 1023.4 |
| 20260506221558 | 47 | 294 | 11.0 | 15.0 | 0.00 | 0.00 | 0.00 | 68 | 1023.3 |
| 20260506221020 | 47 | 304 | 10.0 | 13.0 | 0.00 | 0.00 | 0.00 | 68 | 1023.4 |
| 20260506220518 | 47 | 302 | 9.0 | 13.0 | 0.00 | 0.00 | 0.00 | 69 | 1023.3 |
| 20260506220052 | 47 | 290 | 8.0 | 13.0 | 0.00 | 0.00 | 0.00 | 68 | 1023.4 |
| 20260506215519 | 47 | 304 | 8.0 | 15.0 | 0.00 | 0.00 | 0.00 | 69 | 1023.4 |
| 20260506215016 | 46 | 309 | 9.0 | 15.0 | 0.00 | 0.00 | 0.00 | 68 | 1023.5 |
| 20260506214559 | 47 | 298 | 11.0 | 17.0 | 0.00 | 0.00 | 0.00 | 67 | 1023.3 |
| 20260506214025 | 47 | 293 | 12.0 | 17.0 | 0.00 | 0.00 | 0.00 | 67 | 1023.2 |
| 20260506213522 | 47 | 311 | 11.0 | 15.0 | 0.00 | 0.00 | 0.00 | 67 | 1023.3 |
| 20260506213055 | 47 | 300 | 11.0 | 16.0 | 0.00 | 0.00 | 0.00 | 68 | 1023.2 |
| 20260506212518 | 47 | 316 | 12.0 | 16.0 | 0.00 | 0.00 | 0.00 | 67 | 1023.1 |
| 20260506212017 | 47 | 315 | 9.0 | 13.0 | 0.00 | 0.00 | 0.00 | 68 | 1023.0 |
| 20260506211552 | 47 | 325 | 6.0 | 12.0 | 0.00 | 0.00 | 0.00 | 67 | 1023.0 |
| 20260506211021 | 47 | 277 | 9.0 | 12.0 | 0.00 | 0.00 | 0.00 | 68 | 1022.9 |
| 20260506210517 | 47 | 297 | 7.0 | 12.0 | 0.00 | 0.00 | 0.00 | 67 | 1022.9 |
| 20260506210100 | 47 | 323 | 8.0 | 12.0 | 0.00 | 0.00 | 0.00 | 67 | 1023.0 |
| 20260506205516 | 47 | 312 | 8.0 | 13.0 | 0.00 | 0.00 | 0.00 | 67 | 1023.0 |
| 20260506205021 | 47 | 295 | 9.0 | 13.0 | 0.00 | 0.00 | 0.00 | 66 | 1022.9 |
| 20260506204559 | 47 | 304 | 8.0 | 13.0 | 0.00 | 0.00 | 0.00 | 65 | 1022.9 |
| 20260506204017 | 47 | 290 | 8.0 | 12.0 | 0.00 | 0.00 | 0.00 | 66 | 1022.8 |
| 20260506203516 | 47 | 303 | 6.0 | 11.0 | 0.00 | 0.00 | 0.00 | 67 | 1022.8 |
| 20260506203110 | 46 | 289 | 6.0 | 10.0 | 0.00 | 0.00 | 0.00 | 68 | 1022.8 |
| 20260506202516 | 46 | 298 | 7.0 | 10.0 | 0.00 | 0.00 | 0.00 | 68 | 1022.6 |
| 20260506202019 | 46 | 330 | 5.0 | 10.0 | 0.00 | 0.00 | 0.00 | 67 | 1022.6 |
| 20260506201536 | 46 | 294 | 4.0 | 11.0 | 0.00 | 0.00 | 0.00 | 66 | 1022.6 |
| 20260506201010 | 46 | 308 | 7.0 | 12.0 | 0.00 | 0.00 | 0.00 | 68 | 1022.7 |
| 20260506200510 | 46 | 298 | 7.0 | 13.0 | 0.00 | 0.00 | 0.00 | 69 | 1022.6 |
| 20260506200033 | 46 | 345 | 9.0 | 13.0 | 0.00 | 0.00 | 0.00 | 68 | 1022.7 |
| 20260506195509 | 46 | 294 | 9.0 | 13.0 | 0.00 | 0.00 | 0.00 | 68 | 1022.6 |
| 20260506195010 | 46 | 309 | 8.0 | 13.0 | 0.00 | 0.00 | 0.00 | 68 | 1022.6 |
| 20260506194526 | 46 | 311 | 7.0 | 13.0 | 0.00 | 0.00 | 0.00 | 70 | 1022.5 |
| 20260506194013 | 45 | 302 | 8.0 | 13.0 | 0.00 | 0.00 | 0.00 | 70 | 1022.6 |
| 20260506193510 | 45 | 311 | 6.0 | 11.0 | 0.00 | 0.00 | 0.00 | 71 | 1022.7 |
| 20260506193028 | 45 | 291 | 8.0 | 11.0 | 0.00 | 0.00 | 0.00 | 72 | 1022.6 |
| 20260506192509 | 45 | 300 | 7.0 | 11.0 | 0.00 | 0.00 | 0.00 | 71 | 1022.5 |
| 20260506192014 | 45 | 293 | 6.0 | 11.0 | 0.00 | 0.00 | 0.00 | 72 | 1022.6 |
| 20260506191528 | 45 | 309 | 7.0 | 11.0 | 0.00 | 0.00 | 0.00 | 73 | 1022.5 |
| 20260506191010 | 45 | 246 | 6.0 | 13.0 | 0.00 | 0.00 | 0.00 | 73 | 1022.6 |
| 20260506190510 | 45 | 297 | 8.0 | 13.0 | 0.00 | 0.00 | 0.00 | 74 | 1022.5 |
| 20260506190028 | 44 | 291 | 8.0 | 11.0 | 0.00 | 0.00 | 0.00 | 73 | 1022.5 |
| 20260506185510 | 44 | 290 | 7.0 | 11.0 | 0.00 | 0.00 | 0.00 | 74 | 1022.5 |
| 20260506185009 | 44 | 284 | 7.0 | 11.0 | 0.00 | 0.00 | 0.00 | 73 | 1022.4 |
| 20260506184535 | 44 | 302 | 5.0 | 12.0 | 0.00 | 0.00 | 0.00 | 73 | 1022.4 |
| 20260506184013 | 45 | 309 | 8.0 | 12.0 | 0.00 | 0.00 | 0.00 | 73 | 1022.3 |
| 20260506183510 | 44 | 310 | 6.0 | 10.0 | 0.00 | 0.00 | 0.00 | 74 | 1022.3 |
| 20260506183025 | 44 | 294 | 5.0 | 10.0 | 0.00 | 0.00 | 0.00 | 75 | 1022.4 |
| 20260506182511 | 44 | 327 | 5.0 | 10.0 | 0.00 | 0.00 | 0.00 | 74 | 1022.4 |
| 20260506182011 | 44 | 322 | 6.0 | 9.0 | 0.00 | 0.00 | 0.00 | 75 | 1022.4 |
| 20260506181528 | 44 | 302 | 5.0 | 12.0 | 0.00 | 0.00 | 0.00 | 75 | 1022.3 |
| 20260506181011 | 44 | 300 | 5.0 | 13.0 | 0.00 | 0.00 | 0.00 | 74 | 1022.4 |
| 20260506180511 | 44 | 307 | 6.0 | 13.0 | 0.00 | 0.00 | 0.00 | 73 | 1022.3 |
| 20260506180030 | 44 | 309 | 2.0 | 10.0 | 0.00 | 0.00 | 0.00 | 74 | 1022.5 |
| 20260506175512 | 44 | 307 | 7.0 | 10.0 | 0.00 | 0.00 | 0.00 | 75 | 1022.4 |
| 20260506175012 | 44 | 296 | 3.0 | 8.0 | 0.00 | 0.00 | 0.00 | 75 | 1022.4 |
| 20260506174530 | 44 | 316 | 4.0 | 13.0 | 0.00 | 0.00 | 0.00 | 75 | 1022.4 |
| 20260506174009 | 44 | 297 | 9.0 | 13.0 | 0.00 | 0.00 | 0.00 | 74 | 1022.4 |
| 20260506173512 | 44 | 297 | 8.0 | 10.0 | 0.00 | 0.00 | 0.00 | 75 | 1022.3 |
| 20260506173032 | 44 | 309 | 6.0 | 10.0 | 0.00 | 0.00 | 0.00 | 75 | 1022.3 |
| 20260506172508 | 44 | 296 | 4.0 | 10.0 | 0.00 | 0.00 | 0.00 | 75 | 1022.4 |
| 20260506172013 | 44 | 284 | 5.0 | 10.0 | 0.00 | 0.00 | 0.00 | 74 | 1022.4 |
| 20260506171530 | 44 | 277 | 6.0 | 12.0 | 0.00 | 0.00 | 0.00 | 76 | 1022.3 |
| 20260506171012 | 44 | 296 | 7.0 | 12.0 | 0.00 | 0.00 | 0.00 | 76 | 1022.4 |
| 20260506170513 | 44 | 306 | 8.0 | 13.0 | 0.00 | 0.00 | 0.00 | 76 | 1022.2 |
| 20260506170029 | 44 | 299 | 8.0 | 13.0 | 0.00 | 0.00 | 0.00 | 77 | 1022.3 |
| 20260506165511 | 43 | 296 | 5.0 | 11.0 | 0.00 | 0.00 | 0.00 | 77 | 1022.3 |
| 20260506165010 | 43 | 303 | 7.0 | 11.0 | 0.00 | 0.00 | 0.00 | 76 | 1022.2 |
| 20260506164528 | 44 | 304 | 5.0 | 11.0 | 0.00 | 0.00 | 0.00 | 76 | 1022.3 |
| 20260506164014 | 43 | 313 | 6.0 | 11.0 | 0.00 | 0.00 | 0.00 | 77 | 1022.2 |
| 20260506163510 | 43 | 279 | 8.0 | 13.0 | 0.00 | 0.00 | 0.00 | 77 | 1022.1 |
| 20260506163035 | 43 | 312 | 7.0 | 13.0 | 0.00 | 0.00 | 0.00 | 77 | 1022.1 |
| 20260506162511 | 43 | 287 | 7.0 | 11.0 | 0.00 | 0.00 | 0.00 | 76 | 1021.8 |
| 20260506162012 | 43 | 264 | 5.0 | 11.0 | 0.00 | 0.00 | 0.00 | 78 | 1022.0 |
| 20260506161530 | 43 | 276 | 5.0 | 11.0 | 0.00 | 0.00 | 0.00 | 76 | 1022.0 |
| 20260506161010 | 43 | 312 | 6.0 | 11.0 | 0.00 | 0.00 | 0.00 | 77 | 1021.8 |
| 20260506160513 | 43 | 283 | 7.0 | 13.0 | 0.00 | 0.00 | 0.00 | 78 | 1021.9 |
| 20260506160031 | 43 | 276 | 9.0 | 13.0 | 0.00 | 0.00 | 0.00 | 78 | 1021.8 |
| 20260506155510 | 43 | 294 | 6.0 | 10.0 | 0.00 | 0.00 | 0.00 | 78 | 1021.8 |
| 20260506155009 | 43 | 265 | 6.0 | 14.0 | 0.00 | 0.00 | 0.00 | 79 | 1021.8 |
| 20260506154532 | 43 | 302 | 9.0 | 14.0 | 0.00 | 0.00 | 0.00 | 79 | 1021.5 |
| 20260506154016 | 42 | 288 | 8.0 | 13.0 | 0.00 | 0.00 | 0.00 | 78 | 1021.6 |
| 20260506153511 | 42 | 253 | 8.0 | 13.0 | 0.00 | 0.00 | 0.00 | 79 | 1021.5 |
| 20260506153027 | 42 | 264 | 7.0 | 13.0 | 0.00 | 0.00 | 0.00 | 79 | 1021.5 |
| 20260506152509 | 42 | 298 | 8.0 | 13.0 | 0.00 | 0.00 | 0.00 | 80 | 1021.6 |
| 20260506152012 | 42 | 288 | 4.0 | 11.0 | 0.00 | 0.00 | 0.00 | 81 | 1021.4 |
| 20260506151529 | 42 | 270 | 6.0 | 11.0 | 0.00 | 0.00 | 0.00 | 81 | 1021.3 |
| 20260506151013 | 42 | 281 | 5.0 | 13.0 | 0.00 | 0.00 | 0.00 | 81 | 1021.5 |
| 20260506150512 | 42 | 263 | 8.0 | 13.0 | 0.00 | 0.00 | 0.00 | 80 | 1021.2 |
| 20260506150029 | 42 | 282 | 7.0 | 14.0 | 0.00 | 0.00 | 0.00 | 81 | 1021.4 |
| 20260506145512 | 42 | 296 | 8.0 | 14.0 | 0.00 | 0.00 | 0.00 | 80 | 1021.3 |
| 20260506145009 | 42 | 297 | 7.0 | 14.0 | 0.00 | 0.00 | 0.00 | 80 | 1021.3 |
| 20260506144537 | 42 | 314 | 7.0 | 14.0 | 0.00 | 0.00 | 0.00 | 80 | 1021.3 |
| 20260506144012 | 42 | 293 | 9.0 | 14.0 | 0.00 | 0.00 | 0.00 | 81 | 1021.3 |
| 20260506143513 | 42 | 311 | 6.0 | 12.0 | 0.00 | 0.00 | 0.00 | 80 | 1021.2 |
| 20260506143029 | 42 | 285 | 7.0 | 13.0 | 0.00 | 0.00 | 0.00 | 81 | 1021.1 |
| 20260506142514 | 42 | 290 | 8.0 | 15.0 | 0.00 | 0.00 | 0.00 | 81 | 1021.1 |
| 20260506142010 | 42 | 287 | 8.0 | 15.0 | 0.00 | 0.00 | 0.00 | 81 | 1021.0 |
| 20260506141531 | 42 | 282 | 7.0 | 16.0 | 0.00 | 0.00 | 0.00 | 80 | 1021.0 |
| 20260506141016 | 42 | 275 | 8.0 | 14.0 | 0.00 | 0.00 | 0.00 | 80 | 1020.9 |
| 20260506140511 | 42 | 234 | 6.0 | 11.0 | 0.00 | 0.00 | 0.00 | 81 | 1021.2 |
| 20260506140032 | 42 | 258 | 5.0 | 13.0 | 0.00 | 0.00 | 0.00 | 80 | 1021.0 |
| 20260506135513 | 42 | 248 | 6.0 | 14.0 | 0.00 | 0.00 | 0.00 | 81 | 1020.9 |
| 20260506135010 | 42 | 247 | 9.0 | 16.0 | 0.00 | 0.00 | 0.00 | 80 | 1020.9 |
| 20260506134527 | 42 | 259 | 9.0 | 17.0 | 0.00 | 0.00 | 0.00 | 80 | 1020.8 |
| 20260506134012 | 42 | 258 | 11.0 | 18.0 | 0.00 | 0.00 | 0.00 | 79 | 1020.7 |
| 20260506133516 | 42 | 294 | 13.0 | 18.0 | 0.00 | 0.00 | 0.00 | 80 | 1020.5 |
| 20260506133028 | 42 | 271 | 11.0 | 19.0 | 0.00 | 0.00 | 0.00 | 80 | 1020.5 |
| 20260506132522 | 42 | 309 | 12.0 | 19.0 | 0.00 | 0.00 | 0.00 | 80 | 1020.5 |
| 20260506132012 | 42 | 295 | 10.0 | 13.0 | 0.00 | 0.00 | 0.00 | 80 | 1020.5 |
| 20260506131537 | 42 | 233 | 8.0 | 14.0 | 0.00 | 0.00 | 0.00 | 81 | 1020.5 |
| 20260506131014 | 42 | 278 | 9.0 | 15.0 | 0.00 | 0.00 | 0.00 | 81 | 1020.5 |
| 20260506130514 | 42 | 298 | 7.0 | 18.0 | 0.00 | 0.00 | 0.00 | 81 | 1020.6 |
| 20260506130028 | 42 | 284 | 12.0 | 18.0 | 0.00 | 0.00 | 0.00 | 81 | 1020.3 |
| 20260506125513 | 42 | 261 | 8.0 | 13.0 | 0.00 | 0.00 | 0.00 | 83 | 1020.6 |
| 20260506125013 | 42 | 283 | 4.0 | 13.0 | 0.00 | 0.00 | 0.00 | 83 | 1020.5 |
| 20260506124529 | 42 | 263 | 8.0 | 15.0 | 0.00 | 0.00 | 0.00 | 82 | 1020.4 |
| 20260506124011 | 42 | 262 | 7.0 | 15.0 | 0.00 | 0.00 | 0.00 | 82 | 1020.6 |
| 20260506123512 | 42 | 264 | 5.0 | 17.0 | 0.00 | 0.00 | 0.00 | 82 | 1020.2 |
| 20260506123035 | 43 | 273 | 7.0 | 17.0 | 0.00 | 0.00 | 0.00 | 82 | 1020.3 |
| 20260506122511 | 43 | 250 | 7.0 | 12.0 | 0.00 | 0.00 | 0.00 | 82 | 1020.4 |
| 20260506122010 | 43 | 314 | 7.0 | 12.0 | 0.00 | 0.00 | 0.00 | 83 | 1020.3 |
| 20260506121531 | 43 | 277 | 5.0 | 12.0 | 0.00 | 0.00 | 0.00 | 83 | 1020.3 |
| 20260506121011 | 43 | 269 | 7.0 | 11.0 | 0.00 | 0.00 | 0.00 | 83 | 1020.4 |
| 20260506120512 | 43 | 284 | 4.0 | 10.0 | 0.00 | 0.00 | 0.00 | 83 | 1020.3 |
| 20260506120036 | 43 | 279 | 5.0 | 11.0 | 0.00 | 0.00 | 0.00 | 82 | 1020.3 |
| 20260506115516 | 43 | 292 | 6.0 | 12.0 | 0.00 | 0.00 | 0.00 | 83 | 1020.2 |
| 20260506115016 | 43 | 269 | 5.0 | 12.0 | 0.00 | 0.00 | 0.00 | 83 | 1020.2 |
| 20260506114538 | 43 | 302 | 4.0 | 11.0 | 0.00 | 0.00 | 0.00 | 82 | 1020.3 |
| 20260506114012 | 43 | 281 | 6.0 | 11.0 | 0.00 | 0.00 | 0.00 | 83 | 1020.2 |
| 20260506113511 | 43 | 291 | 6.0 | 12.0 | 0.00 | 0.00 | 0.00 | 82 | 1019.9 |
| 20260506113041 | 43 | 285 | 7.0 | 13.0 | 0.00 | 0.00 | 0.00 | 82 | 1019.9 |
| 20260506112512 | 43 | 292 | 7.0 | 13.0 | 0.00 | 0.00 | 0.00 | 81 | 1019.9 |
| 20260506112012 | 43 | 317 | 6.0 | 13.0 | 0.00 | 0.00 | 0.00 | 83 | 1019.9 |
| 20260506111535 | 43 | 292 | 6.0 | 13.0 | 0.00 | 0.00 | 0.00 | 84 | 1019.9 |
| 20260506111012 | 43 | 291 | 6.0 | 14.0 | 0.00 | 0.00 | 0.00 | 84 | 1019.9 |
| 20260506110511 | 43 | 315 | 7.0 | 14.0 | 0.00 | 0.00 | 0.00 | 83 | 1019.8 |
| 20260506110047 | 43 | 293 | 4.0 | 10.0 | 0.00 | 0.00 | 0.00 | 84 | 1019.8 |
| 20260506105511 | 43 | 278 | 6.0 | 10.0 | 0.00 | 0.00 | 0.00 | 83 | 1019.8 |
| 20260506105014 | 43 | 295 | 6.0 | 14.0 | 0.00 | 0.00 | 0.00 | 84 | 1020.0 |
| 20260506104541 | 43 | 315 | 9.0 | 14.0 | 0.00 | 0.00 | 0.00 | 83 | 1019.6 |
| 20260506104010 | 43 | 286 | 6.0 | 14.0 | 0.00 | 0.00 | 0.00 | 84 | 1019.7 |
| 20260506103514 | 43 | 300 | 6.0 | 14.0 | 0.00 | 0.00 | 0.00 | 85 | 1019.7 |
| 20260506103045 | 43 | 290 | 6.0 | 10.0 | 0.00 | 0.00 | 0.00 | 85 | 1019.6 |
| 20260506102515 | 43 | 321 | 5.0 | 14.0 | 0.00 | 0.00 | 0.00 | 85 | 1019.6 |
| 20260506102011 | 43 | 290 | 8.0 | 14.0 | 0.00 | 0.00 | 0.00 | 84 | 1019.8 |
| 20260506101548 | 43 | 287 | 6.0 | 12.0 | 0.00 | 0.00 | 0.00 | 85 | 1019.8 |
| 20260506101013 | 43 | 279 | 7.0 | 12.0 | 0.00 | 0.00 | 0.00 | 85 | 1019.9 |
| 20260506100512 | 43 | 311 | 8.0 | 12.0 | 0.00 | 0.00 | 0.00 | 85 | 1019.4 |
| 20260506100100 | 43 | 309 | 4.0 | 8.0 | 0.00 | 0.00 | 0.00 | 85 | 1019.7 |
| 20260506095513 | 43 | 288 | 3.0 | 9.0 | 0.00 | 0.00 | 0.00 | 85 | 1019.6 |
| 20260506095013 | 43 | 314 | 4.0 | 9.0 | 0.00 | 0.00 | 0.00 | 85 | 1019.8 |
| 20260506094535 | 43 | 290 | 4.0 | 11.0 | 0.00 | 0.00 | 0.00 | 85 | 1019.7 |
| 20260506094017 | 43 | 292 | 4.0 | 11.0 | 0.00 | 0.00 | 0.00 | 85 | 1019.6 |
| 20260506093513 | 43 | 277 | 6.0 | 10.0 | 0.00 | 0.00 | 0.00 | 85 | 1019.6 |
| 20260506093040 | 43 | 284 | 3.0 | 11.0 | 0.00 | 0.00 | 0.00 | 85 | 1019.5 |
| 20260506092512 | 43 | 294 | 5.0 | 10.0 | 0.00 | 0.00 | 0.00 | 85 | 1019.5 |
| 20260506092016 | 43 | 285 | 5.0 | 10.0 | 0.00 | 0.00 | 0.00 | 84 | 1019.5 |
| 20260506091538 | 43 | 252 | 4.0 | 11.0 | 0.00 | 0.00 | 0.00 | 84 | 1019.6 |
| 20260506091013 | 43 | 300 | 7.0 | 11.0 | 0.00 | 0.00 | 0.00 | 84 | 1019.4 |
| 20260506090512 | 43 | 294 | 5.0 | 12.0 | 0.00 | 0.00 | 0.00 | 85 | 1019.4 |
| 20260506090035 | 43 | 265 | 5.0 | 12.0 | 0.00 | 0.00 | 0.00 | 85 | 1019.4 |
| 20260506085513 | 43 | 293 | 5.0 | 11.0 | 0.00 | 0.00 | 0.00 | 84 | 1019.4 |
| 20260506085012 | 43 | 279 | 4.0 | 9.0 | 0.00 | 0.00 | 0.00 | 84 | 1019.5 |
| 20260506084545 | 43 | 278 | 4.0 | 9.0 | 0.00 | 0.00 | 0.00 | 85 | 1019.5 |
| 20260506084013 | 43 | 285 | 5.0 | 9.0 | 0.00 | 0.00 | 0.00 | 84 | 1019.5 |
| 20260506083515 | 43 | 294 | 5.0 | 9.0 | 0.00 | 0.00 | 0.00 | 83 | 1019.5 |
| 20260506083033 | 43 | 307 | 5.0 | 10.0 | 0.00 | 0.00 | 0.00 | 83 | 1019.3 |
| 20260506082512 | 43 | 306 | 5.0 | 11.0 | 0.00 | 0.00 | 0.00 | 83 | 1019.2 |
| 20260506082014 | 43 | 302 | 6.0 | 11.0 | 0.00 | 0.00 | 0.00 | 83 | 1019.4 |
| 20260506081544 | 43 | 293 | 6.0 | 10.0 | 0.00 | 0.00 | 0.00 | 83 | 1019.3 |
| 20260506081011 | 43 | 279 | 5.0 | 10.0 | 0.00 | 0.00 | 0.00 | 82 | 1019.1 |
| 20260506080514 | 43 | 207 | 5.0 | 11.0 | 0.00 | 0.00 | 0.00 | 83 | 1019.1 |
| 20260506073515 | 43 | 273 | 4.0 | 14.0 | 0.00 | 0.00 | 0.00 | 78 | 1019.1 |
| 20260506073042 | 43 | 299 | 8.0 | 14.0 | 0.00 | 0.00 | 0.00 | 78 | 1018.9 |
| 20260506072515 | 43 | 280 | 5.0 | 15.0 | 0.00 | 0.00 | 0.00 | 78 | 1018.9 |
| 20260506072013 | 43 | 267 | 9.0 | 13.0 | 0.00 | 0.00 | 0.00 | 77 | 1018.8 |
| 20260506071539 | 43 | 269 | 8.0 | 12.0 | 0.00 | 0.00 | 0.00 | 77 | 1018.9 |
| 20260506071018 | 43 | 258 | 8.0 | 12.0 | 0.00 | 0.00 | 0.00 | 77 | 1018.8 |
| 20260506070513 | 43 | 225 | 5.0 | 8.0 | 0.00 | 0.00 | 0.00 | 78 | 1018.8 |
| 20260506062514 | 44 | 279 | 5.0 | 11.0 | 0.00 | 0.00 | 0.00 | 77 | 1018.7 |
| 20260506062013 | 44 | 284 | 6.0 | 13.0 | 0.00 | 0.00 | 0.00 | 77 | 1018.8 |
| 20260506061535 | 44 | 284 | 7.0 | 13.0 | 0.00 | 0.00 | 0.00 | 77 | 1018.6 |
| 20260506061017 | 44 | 275 | 7.0 | 13.0 | 0.00 | 0.00 | 0.00 | 77 | 1018.7 |
| 20260506060517 | 44 | 293 | 7.0 | 12.0 | 0.00 | 0.00 | 0.00 | 77 | 1018.6 |
| 20260506051014 | 45 | 261 | 9.0 | 17.0 | 0.00 | 0.00 | 0.00 | 74 | 1018.5 |
| 20260506050514 | 45 | 323 | 9.0 | 17.0 | 0.00 | 0.00 | 0.00 | 75 | 1018.2 |
| 20260506045016 | 46 | 261 | 11.0 | 17.0 | 0.00 | 0.00 | 0.00 | 73 | 1017.9 |
| 20260506044615 | 46 | 344 | 9.0 | 17.0 | 0.00 | 0.00 | 0.00 | 74 | 1017.9 |
| 20260506044016 | 46 | 288 | 10.0 | 19.0 | 0.00 | 0.00 | 0.00 | 74 | 1017.9 |
| 20260506043515 | 46 | 288 | 12.0 | 19.0 | 0.00 | 0.00 | 0.00 | 73 | 1018.0 |
| 20260506043042 | 47 | 261 | 10.0 | 16.0 | 0.00 | 0.00 | 0.00 | 74 | 1017.8 |
| 20260506042514 | 47 | 308 | 8.0 | 17.0 | 0.00 | 0.00 | 0.00 | 75 | 1017.8 |
| 20260506042016 | 47 | 344 | 6.0 | 17.0 | 0.00 | 0.00 | 0.00 | 75 | 1017.8 |
| 20260506041556 | 47 | 296 | 8.0 | 14.0 | 0.00 | 0.00 | 0.00 | 73 | 1017.5 |
| 20260506041021 | 47 | 293 | 8.0 | 13.0 | 0.00 | 0.00 | 0.00 | 73 | 1017.4 |
| 20260506040515 | 48 | 317 | 8.0 | 16.0 | 0.00 | 0.00 | 0.00 | 72 | 1017.3 |
| 20260506040042 | 48 | 267 | 10.0 | 16.0 | 0.00 | 0.00 | 0.00 | 71 | 1017.1 |
| 20260506035514 | 48 | 347 | 5.0 | 16.0 | 0.00 | 0.00 | 0.00 | 72 | 1017.2 |
| 20260506035014 | 49 | 281 | 7.0 | 17.0 | 0.00 | 0.00 | 0.00 | 71 | 1017.0 |
| 20260506034616 | 49 | 286 | 8.0 | 17.0 | 0.00 | 0.00 | 0.00 | 68 | 1016.9 |
| 20260506034014 | 50 | 276 | 10.0 | 17.0 | 0.00 | 0.00 | 0.00 | 68 | 1016.9 |
| 20260506033515 | 50 | 267 | 9.0 | 16.0 | 0.00 | 0.00 | 0.00 | 66 | 1016.8 |
| 20260506033039 | 51 | 331 | 9.0 | 16.0 | 0.00 | 0.00 | 0.00 | 63 | 1016.7 |
| 20260506032517 | 51 | 288 | 8.0 | 14.0 | 0.00 | 0.00 | 0.00 | 63 | 1016.8 |
| 20260506032014 | 51 | 257 | 8.0 | 18.0 | 0.00 | 0.00 | 0.00 | 65 | 1016.7 |
| 20260506031533 | 52 | 301 | 9.0 | 18.0 | 0.00 | 0.00 | 0.00 | 61 | 1016.6 |
| 20260506031017 | 52 | 266 | 8.0 | 16.0 | 0.00 | 0.00 | 0.00 | 61 | 1016.6 |
| 20260506030520 | 52 | 273 | 8.0 | 16.0 | 0.00 | 0.00 | 0.00 | 60 | 1016.5 |
| 20260506030045 | 53 | 324 | 7.0 | 16.0 | 0.00 | 0.00 | 0.00 | 61 | 1016.5 |
| 20260506025518 | 53 | 306 | 6.0 | 16.0 | 0.00 | 0.00 | 0.00 | 60 | 1016.5 |
| 20260506025018 | 53 | 305 | 8.0 | 16.0 | 0.00 | 0.00 | 0.00 | 61 | 1016.5 |
| 20260506024550 | 53 | 261 | 7.0 | 17.0 | 0.00 | 0.00 | 0.00 | 59 | 1016.4 |
| 20260506024019 | 53 | 316 | 9.0 | 18.0 | 0.00 | 0.00 | 0.00 | 58 | 1016.3 |
| 20260506023516 | 53 | 306 | 12.0 | 18.0 | 0.00 | 0.00 | 0.00 | 56 | 1016.4 |
| 20260506023106 | 54 | 299 | 12.0 | 20.0 | 0.00 | 0.00 | 0.00 | 56 | 1016.2 |
| 20260506022520 | 53 | 303 | 14.0 | 20.0 | 0.00 | 0.00 | 0.00 | 59 | 1016.2 |
| 20260506022016 | 54 | 290 | 14.0 | 20.0 | 0.00 | 0.00 | 0.00 | 55 | 1016.1 |
| 20260506021547 | 54 | 309 | 11.0 | 19.0 | 0.00 | 0.00 | 0.00 | 57 | 1016.2 |
| 20260506021019 | 54 | 301 | 13.0 | 19.0 | 0.00 | 0.00 | 0.00 | 57 | 1016.2 |
| 20260506020514 | 54 | 306 | 12.0 | 20.0 | 0.00 | 0.00 | 0.00 | 57 | 1016.3 |
| 20260506020048 | 54 | 309 | 14.0 | 20.0 | 0.00 | 0.00 | 0.00 | 57 | 1016.3 |
| 20260506015519 | 55 | 310 | 14.0 | 17.0 | 0.00 | 0.00 | 0.00 | 56 | 1016.4 |
| 20260506015017 | 55 | 299 | 13.0 | 17.0 | 0.00 | 0.00 | 0.00 | 56 | 1016.2 |
| 20260506014543 | 55 | 284 | 11.0 | 17.0 | 0.00 | 0.00 | 0.00 | 56 | 1016.2 |
| 20260506014018 | 56 | 332 | 11.0 | 17.0 | 0.00 | 0.00 | 0.00 | 55 | 1016.1 |
| 20260506013518 | 56 | 316 | 11.0 | 17.0 | 0.00 | 0.00 | 0.00 | 54 | 1016.1 |
| 20260506013044 | 56 | 313 | 11.0 | 17.0 | 0.00 | 0.00 | 0.00 | 54 | 1016.0 |
| 20260506012518 | 56 | 292 | 9.0 | 16.0 | 0.00 | 0.00 | 0.00 | 57 | 1016.1 |
| 20260506012015 | 56 | 304 | 7.0 | 16.0 | 0.00 | 0.00 | 0.00 | 57 | 1016.1 |
| 20260506011551 | 56 | 360 | 10.0 | 16.0 | 0.00 | 0.00 | 0.00 | 58 | 1016.1 |
| 20260506011020 | 56 | 311 | 11.0 | 16.0 | 0.00 | 0.00 | 0.00 | 58 | 1016.2 |
| 20260506010520 | 56 | 280 | 7.0 | 16.0 | 0.00 | 0.00 | 0.00 | 59 | 1016.2 |
| 20260506010051 | 55 | 296 | 11.0 | 17.0 | 0.00 | 0.00 | 0.00 | 59 | 1016.3 |
| 20260506005518 | 55 | 315 | 14.0 | 18.0 | 0.00 | 0.00 | 0.00 | 58 | 1016.1 |
| 20260506005018 | 55 | 299 | 12.0 | 21.0 | 0.00 | 0.00 | 0.00 | 59 | 1016.3 |
| 20260506004600 | 56 | 315 | 9.0 | 18.0 | 0.00 | 0.00 | 0.00 | 59 | 1016.1 |
| 20260506004015 | 56 | 310 | 13.0 | 18.0 | 0.00 | 0.00 | 0.00 | 59 | 1016.1 |
| 20260506003517 | 57 | 326 | 13.0 | 20.0 | 0.00 | 0.00 | 0.00 | 58 | 1015.9 |
| 20260506003103 | 57 | 308 | 12.0 | 20.0 | 0.00 | 0.00 | 0.00 | 57 | 1016.1 |
| 20260506002519 | 57 | 302 | 14.0 | 22.0 | 0.00 | 0.00 | 0.00 | 58 | 1016.2 |
| 20260506002016 | 57 | 323 | 15.0 | 22.0 | 0.00 | 0.00 | 0.00 | 57 | 1016.2 |
| 20260506001554 | 57 | 301 | 14.0 | 19.0 | 0.00 | 0.00 | 0.00 | 57 | 1016.2 |
| 20260506001017 | 58 | 291 | 11.0 | 18.0 | 0.00 | 0.00 | 0.00 | 59 | 1016.0 |
| 20260506000516 | 57 | 304 | 13.0 | 21.0 | 0.00 | 0.00 | 0.00 | 61 | 1016.0 |
| 20260506000051 | 58 | 318 | 13.0 | 21.0 | 0.00 | 0.00 | 0.00 | 59 | 1015.8 |
| 20260505235517 | 59 | 308 | 14.0 | 19.0 | 0.00 | 0.00 | 0.00 | 57 | 1015.8 |
| 20260505235017 | 59 | 303 | 9.0 | 19.0 | 0.00 | 0.00 | 0.00 | 57 | 1015.8 |
| 20260505234613 | 59 | 300 | 13.0 | 16.0 | 0.00 | 0.00 | 0.00 | 54 | 1015.8 |
| 20260505234025 | 59 | 320 | 6.0 | 18.0 | 0.00 | 0.00 | 0.00 | 55 | 1015.9 |
| 20260505233520 | 59 | 321 | 8.0 | 18.0 | 0.00 | 0.00 | 0.00 | 59 | 1015.9 |
| 20260505233044 | 59 | 300 | 4.0 | 15.0 | 0.00 | 0.00 | 0.00 | 57 | 1016.0 |
| 20260505232517 | 58 | 336 | 8.0 | 16.0 | 0.00 | 0.00 | 0.00 | 55 | 1016.1 |
| 20260505232019 | 58 | 283 | 6.0 | 15.0 | 0.00 | 0.00 | 0.00 | 56 | 1016.0 |
| 20260505231552 | 58 | 331 | 7.0 | 13.0 | 0.00 | 0.00 | 0.00 | 56 | 1016.0 |
| 20260505231019 | 58 | 303 | 11.0 | 13.0 | 0.00 | 0.00 | 0.00 | 55 | 1015.9 |
| 20260505230519 | 58 | 278 | 8.0 | 13.0 | 0.00 | 0.00 | 0.00 | 56 | 1016.0 |